Regional Weather Roundup
Issued by NWS

Home | Current Version | Previous Version | Text Only | Print | Product List | Glossary On
Versions: 1 2 3 4 5 6 7 8 9 10 11 12 13 14 15 16 17 18 19 20 21 22 23 24 25 26 27 28 29 30 31 32 33 34 35 36 37 38 39 40 41 42 43 44 45 46 47 48 49 50
000
ASUS44 KFWD 302201
RWRTX
NORTH TEXAS HOURLY WEATHER ROUNDUP
NATIONAL WEATHER SERVICE FORT WORTH TX
500 PM CDT SUN AUG 30 2015

NOTE: "FAIR" INDICATES FEW OR NO CLOUDS BELOW 12,000 FEET WITH NO
SIGNIFICANT WEATHER AND/OR OBSTRUCTIONS TO VISIBILITY.

TXZ118-119-302300-
DALLAS/FORT WORTH METROPLEX

CITY           SKY/WX    TMP DP  RH WIND       PRES   REMARKS
DFW AIRPORT    PTSUNNY   95  55  26 CALM      29.92F HX  93
DALLAS LOVE    PTSUNNY   97  58  27 NW3       29.92F HX  96
FTW MEACHAM    MOSUNNY   97  57  26 W8        29.92F HX  96
DAL-EXECUTIVE  PTSUNNY   92  63  38 S10G17    29.93F HX  93
FTW-ALLIANCE   MOSUNNY   94  56  27 VRB5      29.93F HX  92
FTW-NAS-JRB    PTSUNNY   97  58  27 W9        29.92F HX  96
FTW-SPINKS     MOSUNNY   93  63  36 S17       29.95F HX  94
ARLINGTON      MOSUNNY   95  62  33 S10G17    29.93F HX  96
GRAND PRAIRIE  SUNNY     93  64  38 S12G21    29.94F HX  95
ADDISON        PTSUNNY   95  54  24 W7        29.94F HX  93
MESQUITE       MOSUNNY   91  61  35 S14       29.94F HX  91
LANCASTER      PTSUNNY   89  62  39 SW8       29.95F HX  90
$$

TXZ091>094-102>105-117-120-121-131>134-302300-
NORTH CENTRAL TEXAS

CITY           SKY/WX    TMP DP  RH WIND       PRES   REMARKS
SHRMAN/DENISON MOSUNNY   99  60  27 S9        29.92F HX  99
BOWIE          MOSUNNY   96  52  22 SW10      29.93F HX  93
BRIDGEPORT     MOSUNNY   95  61  32 S10G16    29.94F HX  95
DENTON         MOSUNNY   95  57  27 SW14      29.92F HX  94
MCKINNEY       MOSUNNY   94  58  29 SW8       29.93F HX  93
TERRELL        PTSUNNY   92  65  40 S12G23    29.94F HX  94
WAXAHACHIE     MOSUNNY   92  64  38 S13       29.96F HX  94
$$

TXZ083>090-098>101-113>116-127>130-139>142-154-155-302300-
WESTERN NORTH TEXAS

CITY           SKY/WX    TMP DP  RH WIND       PRES   REMARKS
WICHITA FALLS  MOSUNNY   96  56  26 CALM      29.90F HX  94
WF-KICKAPOO    MOSUNNY   97  54  23 N5        29.92F HX  95
VERNON         SUNNY     96  47  19 CALM      29.93F HX  92
ABILENE        MOSUNNY   93  56  28 SW7       29.98F HX  91
ABILENE-DYESS  MOSUNNY   93  57  30 VRB2      29.96F HX  91
MINERAL WELLS  MOSUNNY   91  62  37 W5        29.93F HX  91
STEPHENVILLE   PTSUNNY   89  62  41 SW6       30.00F
COMANCHE       MOSUNNY   90  60  37 S6        29.98F HX  90
$$

TXZ143>147-156>162-174-175-302300-
CENTRAL TEXAS

CITY           SKY/WX    TMP DP  RH WIND       PRES   REMARKS
WACO           PTSUNNY   86  65  49 NW8       29.96F
WACO-TSTC      SUNNY     86  68  54 VRB5      29.95F
CORSICANA      PTSUNNY   91  66  43 SE10      29.97F HX  93
MEXIA          PTSUNNY   85  67  53 SE21      29.96F
HEARNE         MOSUNNY   91  66  43 SE8       29.96F HX  93
TEMPLE         CLOUDY    86  66  51 NW13      29.96F
KILLEEN        CLOUDY    87  63  44 SE13      29.97F
KILLEEN-SKYLRK CLOUDY    82  64  54 S6        29.97S
FORT HOOD      CLOUDY    87  66  50 S9        29.97S
$$

TXZ095>097-106>112-122>126-135>138-148>153-164>167-302300-
EAST TEXAS

CITY           SKY/WX    TMP DP  RH WIND       PRES   REMARKS
PARIS          MOSUNNY   93  63  36 S17       29.94S HX  94
GILMER         MOSUNNY   90  65  43 S7G16     29.97S HX  92
MINEOLA        MOSUNNY   91  63  38 S7        29.97F HX  92
TYLER          MOSUNNY   92  65  40 S10       29.97F HX  94
LONGVIEW       PTSUNNY   92  66  42 S6        29.97F HX  94
ATHENS         PTSUNNY   86  66  51 CALM      29.96S
JACKSONVILLE   PTSUNNY   89  57  33 SE3       30.01S
NACOGDOCHES    MOSUNNY   88  63  42 SE9       29.98S
LUFKIN         MOSUNNY   88  61  40 SE3       29.98F
$$

SUPPLEMENTAL OBSERVATIONS (CENTRAL)

CITY           SKY/WX    TMP DP  RH WIND       PRES   REMARKS
$$

SUPPLEMENTAL OBSERVATIONS (WEST)

CITY           SKY/WX    TMP DP  RH WIND       PRES   REMARKS
$$

SUPPLEMENTAL OBSERVATIONS (EAST)

CITY           SKY/WX    TMP DP  RH WIND       PRES   REMARKS
$$

SUPPLEMENTAL OBSERVATIONS ARE A COLLECTION OF AUTOMATED INSTRUMENTS
THAT ARE MAINTAINED BY A VARIETY OF FEDERAL AND STATE AGENCIES.
CERTAIN ELEMENTS...SUCH AS HUMIDITY VALUES AND SUSTAINED WIND
SPEEDS...MAY BE APPROXIMATED.



USA.gov is the U.S. government's official web portal to all federal, state and local government web resources and services.